Temperature
6 8 8 8 9 10 10 11 11 11 11 11 11 11 11 11 11 11 11 11 11 11 11 11 11 11 12 12 12 12 12 12 12 12 12 12 12 12 12 12 12 12 12 12
7 7 8 8 9 9 10 10 10 10 10 11 11 10 11 11 11 11 11 11 11 10 10 10 11 11 11 12 12 12 12 12 12 12 12 12 12 11 11 11 11 11 11 11
7 7 8 8 8 9 9 10 10 10 9 10 10 10 10 11 10 10 10 10 10 10 10 10 10 10 11 11 11 11 11 11 11 11 11 11 11 11 11 11 11 11 11 11
7 7 7 8 8 8 9 9 9 9 10 9 10 11 11 11 10 10 10 9 9 9 9 9 10 10 10 11 11 11 11 11 11 11 11 11 11 11 11 11 11 10 10 10
6 7 7 7 8 8 8 9 9 9 9 9 10 10 12 11 11 10 10 9 9 9 9 9 9 9 10 10 10 10 11 11 11 11 11 11 10 10 10 10 10 10 10 10
6 6 6 7 7 8 8 8 9 9 9 9 9 10 12 11 11 11 10 9 8 8 8 8 9 9 9 9 10 10 10 10 10 10 10 10 10 10 10 9 10 9 9 9
6 6 6 6 7 7 8 8 8 8 8 9 9 10 11 10 10 10 9 8 7 7 7 8 8 8 9 9 9 9 9 10 10 10 10 10 10 9 9 9 9 9 9 9
6 6 6 6 6 7 7 8 8 9 9 10 9 10 11 9 8 7 7 7 6 6 6 7 7 8 8 8 9 9 9 9 9 9 9 9 9 9 9 9 9 9 9 8
5 6 5 5 5 6 7 7 7 8 8 9 9 9 9 7 7 7 6 6 6 5 6 6 7 7 8 8 8 8 9 9 9 9 9 9 8 8 8 8 8 8 8 8
4 4 5 5 6 5 7 7 7 7 8 9 9 9 10 8 7 7 6 5 5 4 5 5 6 6 7 7 8 8 8 8 8 8 8 8 8 8 8 8 8 8 8 8
3 4 4 5 5 5 5 6 6 7 7 9 9 10 8 7 7 6 6 4 4 4 4 4 5 6 6 6 7 7 7 8 8 8 8 8 8 7 7 7 7 7 7 7
2 4 4 4 4 4 5 5 6 7 6 7 9 8 6 6 6 5 5 4 3 3 3 4 4 5 5 6 6 6 7 7 7 7 7 7 7 7 7 7 7 7 7 7
2 3 4 5 4 3 3 4 4 5 6 7 8 8 5 4 4 4 3 3 2 3 3 3 4 4 5 5 5 6 6 6 6 6 6 6 6 6 6 6 6 6 6 6
2 2 3 5 5 3 3 3 3 4 6 7 7 6 5 5 4 4 3 2 2 2 2 3 3 3 4 4 5 5 5 5 5 6 6 6 6 6 6 6 6 6 5 5
1 2 2 2 2 2 2 3 3 3 4 6 6 5 5 5 4 3 2 2 1 1 2 2 2 3 3 3 4 4 4 5 5 5 5 5 5 5 5 5 5 5 5 5
-1 1 1 2 2 2 2 2 2 3 3 4 4 4 4 3 2 2 1 1 1 1 1 1 2 2 3 3 3 3 4 4 4 4 4 4 4 4 4 4 4 4 4 4
-0 -0 1 3 2 2 2 2 2 2 2 3 4 3 3 2 2 1 1 0 0 -0 0 1 1 2 2 2 2 3 3 3 3 3 4 4 4 4 4 4 4 4 4 4
-2 -1 1 2 2 2 3 1 1 1 1 1 1 2 2 1 0 0 0 -0 -0 -0 -0 0 1 1 1 2 2 2 2 2 3 3 3 3 3 3 3 3 3 3 3 3
-2 -1 1 1 2 3 2 0 -1 -0 1 1 1 1 0 -0 -0 -0 0 -0 -0 -1 -0 -0 0 1 1 1 1 2 2 2 2 2 2 2 2 2 2 2 2 2 2 2
-3 -2 0 1 2 3 2 -1 -2 -1 1 0 -0 -0 -0 -0 2 1 -1 -1 -1 -1 -1 -0 0 0 1 1 1 1 1 1 1 1 1 2 2 2 2 2 2 2 2 1
-2 -2 -1 0 1 2 -0 -2 -2 1 2 -1 -1 -1 -1 -0 0 -1 -1 -2 -2 -1 -1 -1 -0 -0 -0 -0 -0 0 0 0 1 1 1 1 1 1 1 1 1 1 1 1
-2 -1 -2 -1 0 1 -2 -2 -1 -0 -2 -2 -2 -2 -2 -2 -2 -2 -2 -2 -2 -2 -2 -1 -1 -1 -1 -1 -1 -0 -0 -0 -0 0 0 0 0 0 0 0 0 0 0 0
-3 -2 -1 -1 -0 -2 -3 -3 -3 -3 -3 -3 -3 -3 -3 -3 -3 -3 -3 -3 -3 -3 -2 -2 -2 -1 -1 -1 -1 -1 -1 -1 -1 -0 -0 -0 -0 -0 -0 -0 -0 -0 -1 -1
-4 -5 -4 -3 -2 -3 -4 -4 -3 -3 -3 -3 -3 -3 -3 -3 -3 -4 -4 -4 -3 -3 -3 -2 -2 -2 -2 -2 -2 -1 -1 -1 -1 -1 -1 -1 -1 -1 -1 -1 -1 -1 -1 -1
-3 -5 -4 -4 -3 -4 -3 -4 -3 -3 -3 -3 -3 -3 -3 -4 -4 -4 -4 -4 -3 -3 -3 -3 -2 -2 -2 -2 -2 -2 -2 -2 -2 -2 -2 -2 -2 -2 -2 -2 -2 -2 -2 -2
-4 -5 -3 -1 -2 -3 -3 -3 -3 -3 -3 -3 -3 -4 -4 -4 -4 -4 -4 -4 -4 -3 -3 -3 -3 -3 -3 -3 -3 -2 -3 -3 -3 -2 -2 -2 -2 -2 -3 -2 -3 -2 -2 -2
Wind_Speed
3 5 7 9 11 9 10 9 9 7 5 7 10 9 7 6 7 8 8 8 8 7 5 4 5 5 6 6 6 7 7 7 6 5 5 5 4 4 3 3 4 5 5 5
4 5 7 7 8 7 9 9 7 4 3 5 7 7 7 7 8 9 9 9 8 6 5 4 4 4 6 7 7 6 7 7 7 6 5 3 4 3 3 3 4 4 5 5
5 3 4 6 6 8 7 10 8 5 2 3 6 7 8 7 7 7 8 8 8 7 6 5 4 4 4 5 6 6 7 7 7 7 5 5 4 3 2 3 3 3 4 5
3 1 5 6 6 7 7 7 7 7 6 4 6 7 9 9 8 8 8 8 7 6 6 5 4 4 4 4 4 6 7 7 7 7 7 8 6 5 4 4 3 4 4 4
2 1 4 5 5 6 4 5 6 7 6 5 7 7 8 9 10 11 10 9 7 6 5 5 4 3 2 2 3 5 6 7 7 7 8 7 5 4 3 4 5 4 4 4
1 0 1 2 3 5 3 3 3 4 5 7 9 8 8 8 12 11 9 8 6 5 5 4 3 2 2 1 2 3 5 6 7 7 7 7 7 6 6 6 5 4 3 3
1 1 1 1 2 4 4 4 3 4 5 6 7 8 7 6 7 8 8 7 5 4 4 3 3 3 2 3 4 4 5 6 6 7 7 7 7 7 7 6 6 5 3 3
2 1 1 1 2 4 6 6 4 4 5 3 5 8 4 1 2 2 3 4 4 3 3 3 3 2 3 3 4 4 5 5 6 6 6 6 6 5 5 6 5 5 3 3
1 2 1 1 1 3 5 6 4 1 2 3 5 4 3 1 2 2 2 1 2 2 2 2 2 2 2 2 4 5 5 5 5 6 6 6 6 6 6 6 5 4 3 3
1 2 2 1 2 1 2 4 3 3 4 5 5 6 5 3 3 2 1 1 1 1 1 1 1 2 2 2 2 3 5 5 5 5 5 5 5 6 6 5 5 5 5 5
1 1 1 1 2 3 3 4 3 3 3 4 5 4 1 3 4 4 3 1 1 1 1 1 1 2 2 2 2 3 4 4 4 5 5 6 5 5 5 5 5 5 5 5
1 1 1 2 1 2 3 4 5 5 4 4 4 3 3 1 1 2 1 0 1 1 1 1 1 1 2 2 2 3 4 4 4 5 5 5 5 5 5 5 5 5 5 4
1 1 1 2 3 1 1 2 3 3 3 4 5 3 3 1 0 0 0 0 1 1 2 1 1 1 2 2 2 2 3 3 4 4 5 5 5 5 5 5 4 4 4 4
0 1 3 4 1 1 2 4 4 5 5 6 7 6 4 3 2 1 1 1 1 1 1 1 1 2 1 1 1 2 2 3 4 4 5 5 4 4 4 4 4 4 4 4
1 1 1 2 2 2 3 4 5 6 6 7 6 7 7 5 4 3 3 2 2 2 3 3 2 2 2 1 1 1 2 3 3 4 4 4 4 4 4 4 4 4 4 4
1 1 1 2 1 1 3 5 6 6 7 7 6 8 7 5 3 3 3 3 2 3 3 4 4 3 2 2 2 1 2 2 3 4 4 4 4 4 4 3 3 4 4 3
0 1 1 2 1 1 4 5 6 5 5 5 7 7 4 4 4 4 4 3 3 3 4 4 4 3 3 2 2 2 2 2 3 4 4 4 4 4 3 3 3 3 3 3
2 1 1 1 0 4 1 1 2 5 5 5 6 5 4 5 4 4 3 3 4 4 4 4 3 3 3 3 2 2 1 2 3 3 3 3 4 3 3 4 4 3 3 3
2 2 1 1 2 5 3 1 1 3 5 5 6 6 5 3 3 3 2 3 4 4 4 3 3 3 3 3 2 1 1 1 3 3 3 3 3 3 3 3 4 3 3 2
2 0 2 2 3 4 1 1 1 2 4 2 3 5 4 3 3 3 2 3 2 3 2 3 2 2 2 2 1 0 1 2 2 3 3 3 3 3 3 3 3 2 3 3
1 1 3 4 4 5 1 1 2 3 2 3 3 4 4 4 4 3 2 2 2 2 2 3 2 2 2 2 1 0 1 1 2 2 2 2 3 3 3 2 2 2 3 3
3 4 4 4 5 5 1 3 4 3 3 2 3 3 3 4 3 2 2 2 2 2 2 2 2 2 3 2 1 0 1 1 1 2 2 2 2 2 2 3 2 2 3 3
5 4 3 5 4 1 3 3 3 3 3 3 3 3 3 3 3 3 2 2 2 2 2 2 2 3 3 2 1 1 1 1 1 2 2 2 2 2 2 3 3 3 3 2
4 3 4 5 7 6 5 5 5 5 5 6 5 4 3 4 3 3 2 2 2 2 2 2 2 2 3 2 2 1 1 1 1 2 2 2 2 2 2 2 2 2 3 2
4 5 4 6 7 6 6 6 6 6 5 5 5 4 4 3 3 3 2 2 2 2 2 2 1 2 2 2 2 2 1 0 1 1 1 2 2 2 2 1 1 2 2 2
6 7 6 6 5 5 4 4 5 5 5 5 4 4 3 3 3 3 2 2 2 2 2 2 2 2 2 2 2 2 1 0 1 1 1 1 1 2 2 2 1 1 1 1
Wind_Direction
170 175 197 204 207 212 201 200 208 219 220 214 215 217 224 221 213 211 207 201 194 193 187 176 170 171 170 168 167 167 167 166 160 162 164 161 157 151 143 135 142 151 151 151
165 201 213 209 203 196 200 198 207 209 208 217 208 227 228 221 216 215 208 202 194 187 179 170 172 176 178 177 173 170 169 170 171 172 169 162 153 145 141 139 139 149 147 146
178 204 201 192 197 198 204 201 200 199 212 205 203 226 221 220 217 220 217 210 199 193 187 179 175 182 180 181 180 178 177 171 169 162 149 139 133 129 141 153 155 154 150 149
196 211 187 184 200 198 207 202 200 195 196 210 208 223 220 212 212 214 214 210 203 194 186 183 180 182 186 190 183 177 176 169 165 164 167 167 172 171 182 171 160 150 145 142
182 196 181 190 209 203 206 196 204 205 207 219 219 220 219 198 213 214 213 211 206 202 196 190 188 187 194 187 183 178 172 171 167 171 174 173 171 163 155 153 149 147 137 137
132 232 225 228 213 197 173 166 181 199 210 221 214 215 219 201 210 212 208 204 200 198 199 198 199 187 182 175 187 179 173 172 171 174 179 178 169 159 157 164 161 154 144 138
74 88 322 258 184 179 178 171 173 193 208 223 202 220 231 207 210 216 211 203 197 193 186 185 195 204 191 183 184 179 175 174 174 176 179 177 173 169 171 174 173 161 159 159
176 203 284 292 220 207 204 202 207 211 208 219 201 220 222 192 202 207 213 199 191 190 187 188 195 208 207 200 186 183 181 178 175 174 175 172 169 168 172 176 171 165 164 163
215 222 259 274 248 202 188 203 238 267 219 221 212 232 267 247 185 180 168 170 206 203 202 210 211 218 212 208 198 190 184 181 178 175 172 170 169 168 170 170 167 162 157 150
306 239 283 286 185 175 223 186 188 205 203 221 224 234 229 201 207 203 185 212 261 288 267 244 233 223 227 226 214 196 188 186 182 178 175 170 169 168 166 166 166 163 161 157
318 243 208 174 204 212 183 186 197 206 243 233 230 235 333 214 201 204 214 238 271 299 271 255 245 236 233 232 210 193 185 179 179 180 177 169 166 166 169 170 168 166 165 164
323 265 219 233 285 291 231 211 201 213 218 241 250 268 34 291 208 216 233 275 352 312 320 308 267 244 229 224 198 196 192 181 182 181 177 171 166 167 170 169 168 168 170 168
199 199 192 180 186 161 212 222 226 218 216 224 232 243 37 4 336 305 321 21 10 343 346 346 302 257 251 233 207 199 199 190 185 179 173 171 168 170 173 171 170 169 171 171
131 209 239 234 263 211 235 241 227 207 220 226 233 247 277 296 291 301 298 296 326 339 345 338 315 306 289 250 221 208 208 197 187 180 178 178 177 177 177 171 170 171 176 178
63 229 236 285 297 243 246 250 228 218 232 234 234 243 261 278 277 281 283 294 313 322 327 326 319 316 307 293 245 221 218 207 192 183 180 182 178 173 169 168 169 171 178 183
32 222 230 263 227 233 280 267 238 233 241 241 257 272 287 295 283 277 275 278 285 303 313 318 322 317 305 289 268 247 237 225 200 190 186 176 174 173 168 167 170 171 176 178
239 186 253 255 300 291 265 259 235 235 239 236 244 263 294 293 270 261 260 258 268 289 302 307 308 305 300 295 281 259 246 231 210 194 186 178 176 177 173 169 171 177 181 180
178 173 223 282 317 238 267 34 251 232 252 255 265 273 273 279 292 284 263 260 275 288 296 299 304 308 308 307 297 273 241 217 199 187 184 183 183 183 179 176 179 181 183 186
207 186 192 214 248 273 276 256 248 243 267 262 253 264 275 303 317 291 280 276 272 281 291 297 303 308 311 313 304 261 217 202 185 184 188 193 190 186 186 185 187 185 178 181
74 169 205 206 232 247 301 74 329 250 265 295 257 251 250 241 252 279 308 310 299 299 309 317 322 326 328 330 321 232 215 206 202 196 193 194 193 191 189 191 190 183 178 182
183 189 212 219 235 262 316 317 202 208 290 335 272 251 238 244 277 302 307 310 315 320 328 336 339 337 331 331 327 236 234 242 233 203 184 185 189 192 189 186 183 171 170 171
203 191 198 200 219 247 129 149 202 272 333 307 289 273 268 280 298 296 292 302 320 330 336 340 344 338 333 331 310 263 286 285 227 178 171 173 184 188 177 169 172 170 166 170
217 217 214 212 227 329 182 219 272 301 283 287 288 285 274 278 281 278 288 303 315 321 327 332 338 336 337 336 318 283 303 294 186 161 166 166 168 176 174 172 173 175 177 178
225 225 227 247 256 262 253 259 275 271 271 282 280 275 266 267 267 276 285 298 308 314 321 331 342 345 339 342 341 326 313 280 166 156 161 161 159 162 166 173 182 181 184 185
220 187 216 246 266 279 255 250 263 272 275 277 276 269 254 245 250 253 270 285 297 309 321 327 330 331 331 340 350 346 336 178 162 159 163 157 160 163 160 159 176 194 209 205
204 201 209 236 235 233 255 257 260 254 258 264 264 273 264 235 235 241 253 267 276 293 312 321 323 322 323 341 351 349 349 165 161 154 162 167 164 164 163 151 127 96 168 154
Height
1484 1485 1484 1483 1484 1483 1483 1484 1486 1488 1492 1493 1493 1494 1496 1498 1499 1500 1501 1502 1504 1506 1508 1509 1511 1513 1515 1518 1520 1523 1526 1528 1530 1532 1533 1535 1537 1539 1542 1544 1545 1547 1548 1549
1483 1483 1484 1485 1485 1484 1484 1485 1487 1490 1492 1492 1492 1494 1494 1495 1496 1498 1499 1500 1502 1504 1506 1507 1509 1511 1513 1515 1518 1521 1523 1526 1528 1530 1532 1534 1536 1537 1539 1541 1543 1544 1545 1546
1480 1483 1484 1485 1485 1485 1485 1485 1487 1489 1492 1492 1493 1493 1492 1493 1495 1497 1498 1499 1500 1501 1503 1505 1507 1509 1511 1513 1516 1518 1521 1523 1525 1527 1530 1532 1533 1535 1537 1539 1540 1542 1543 1544
1482 1483 1484 1485 1485 1484 1484 1486 1487 1488 1489 1491 1491 1488 1485 1488 1491 1494 1495 1497 1498 1500 1501 1503 1505 1507 1509 1511 1514 1516 1518 1520 1523 1525 1527 1529 1531 1531 1534 1536 1538 1539 1540 1541
1484 1485 1484 1484 1485 1485 1485 1487 1488 1488 1488 1490 1488 1487 1480 1484 1487 1489 1492 1494 1496 1498 1499 1501 1503 1505 1507 1509 1511 1514 1516 1518 1521 1523 1525 1527 1528 1530 1532 1534 1535 1536 1537 1539
1486 1488 1488 1487 1487 1487 1488 1488 1489 1489 1490 1490 1486 1483 1476 1479 1481 1484 1489 1492 1494 1496 1498 1499 1501 1503 1505 1506 1508 1511 1514 1516 1518 1520 1523 1524 1526 1528 1530 1531 1532 1533 1534 1536
1487 1488 1489 1489 1487 1488 1488 1488 1489 1489 1488 1483 1483 1481 1475 1477 1481 1484 1487 1490 1492 1494 1496 1497 1499 1501 1502 1504 1506 1508 1511 1513 1515 1518 1520 1522 1524 1525 1527 1528 1529 1530 1531 1533
1485 1486 1489 1489 1488 1488 1488 1488 1486 1483 1479 1477 1483 1478 1474 1480 1483 1485 1487 1488 1491 1492 1493 1495 1497 1498 1500 1502 1504 1506 1508 1510 1513 1515 1517 1519 1521 1523 1525 1526 1527 1528 1529 1530
1487 1487 1490 1491 1490 1489 1488 1488 1489 1487 1483 1480 1477 1477 1478 1481 1482 1484 1486 1487 1489 1490 1491 1493 1494 1496 1497 1499 1501 1504 1505 1507 1510 1512 1514 1516 1518 1520 1522 1523 1524 1525 1527 1528
1494 1492 1490 1491 1491 1491 1489 1489 1489 1487 1482 1475 1473 1473 1469 1478 1480 1483 1485 1486 1487 1488 1490 1491 1492 1494 1495 1497 1499 1501 1503 1505 1507 1509 1511 1513 1515 1517 1518 1519 1521 1522 1523 1524
1497 1494 1491 1491 1491 1489 1491 1491 1488 1486 1484 1475 1472 1470 1475 1477 1479 1482 1484 1485 1486 1488 1488 1489 1491 1492 1493 1495 1496 1498 1500 1502 1504 1506 1508 1510 1512 1513 1515 1516 1518 1519 1520 1521
1498 1494 1490 1491 1493 1493 1491 1489 1487 1485 1485 1480 1472 1476 1481 1481 1482 1483 1484 1485 1486 1487 1487 1488 1489 1490 1491 1492 1493 1495 1497 1499 1501 1503 1505 1507 1509 1510 1512 1513 1514 1515 1517 1518
1498 1496 1489 1486 1493 1495 1493 1493 1491 1489 1486 1481 1474 1477 1483 1483 1483 1484 1485 1485 1486 1486 1486 1486 1487 1488 1489 1489 1490 1492 1494 1496 1498 1500 1501 1504 1505 1507 1508 1509 1511 1512 1513 1514
1498 1497 1492 1483 1483 1490 1492 1493 1492 1489 1482 1478 1476 1477 1481 1482 1483 1484 1485 1485 1485 1485 1485 1486 1486 1486 1487 1487 1488 1489 1491 1493 1494 1496 1498 1500 1502 1503 1504 1506 1507 1508 1510 1511
1499 1497 1496 1494 1493 1493 1493 1492 1491 1490 1484 1478 1475 1478 1479 1481 1483 1484 1484 1484 1484 1484 1484 1484 1484 1484 1484 1484 1485 1487 1488 1490 1491 1493 1495 1496 1498 1500 1501 1502 1503 1505 1506 1507
1501 1499 1497 1494 1494 1493 1493 1491 1490 1489 1488 1484 1482 1482 1481 1483 1484 1483 1483 1483 1483 1482 1482 1482 1481 1482 1482 1482 1483 1484 1485 1487 1488 1490 1491 1493 1495 1496 1497 1498 1500 1501 1502 1503
1501 1501 1496 1488 1493 1491 1487 1489 1489 1488 1487 1484 1481 1481 1482 1482 1482 1482 1482 1482 1482 1481 1480 1480 1479 1479 1480 1480 1481 1482 1483 1484 1485 1486 1488 1489 1491 1492 1493 1495 1496 1497 1498 1500
1503 1501 1498 1492 1492 1489 1485 1490 1489 1488 1486 1486 1484 1483 1483 1482 1482 1482 1482 1481 1480 1480 1479 1478 1478 1478 1478 1478 1479 1479 1480 1481 1482 1483 1484 1486 1487 1489 1490 1491 1493 1494 1495 1496
1502 1500 1496 1494 1488 1483 1486 1490 1491 1489 1485 1484 1483 1482 1483 1482 1481 1480 1480 1480 1479 1478 1478 1477 1477 1476 1476 1476 1477 1477 1477 1478 1479 1480 1481 1483 1484 1485 1487 1488 1489 1491 1492 1493
1503 1502 1498 1495 1487 1481 1481 1490 1491 1491 1483 1482 1482 1482 1482 1481 1478 1478 1478 1478 1477 1477 1476 1475 1475 1475 1475 1475 1475 1475 1475 1476 1477 1478 1479 1480 1482 1483 1484 1485 1486 1487 1489 1490
1502 1501 1499 1494 1489 1482 1488 1490 1490 1486 1479 1482 1481 1481 1481 1480 1478 1478 1476 1476 1476 1475 1475 1474 1474 1473 1473 1473 1473 1473 1473 1474 1475 1475 1476 1478 1479 1480 1481 1482 1483 1484 1485 1487
1498 1495 1497 1493 1489 1485 1488 1488 1487 1483 1482 1481 1480 1480 1479 1478 1477 1476 1475 1474 1474 1473 1473 1473 1472 1472 1472 1472 1471 1470 1471 1471 1472 1473 1474 1475 1476 1477 1478 1479 1480 1482 1483 1484
1498 1495 1491 1491 1486 1486 1486 1484 1483 1483 1481 1480 1479 1479 1478 1476 1475 1474 1473 1473 1472 1472 1472 1471 1471 1470 1470 1470 1470 1469 1469 1470 1470 1470 1471 1472 1473 1474 1475 1477 1478 1479 1480 1481
1495 1496 1494 1490 1484 1484 1483 1482 1481 1480 1479 1478 1477 1477 1476 1474 1473 1473 1472 1471 1471 1470 1470 1470 1469 1468 1468 1468 1468 1467 1467 1467 1467 1468 1468 1469 1470 1471 1473 1474 1475 1476 1477 1478
1489 1492 1490 1486 1482 1481 1479 1478 1478 1477 1477 1476 1475 1474 1473 1472 1472 1471 1470 1470 1469 1469 1469 1469 1468 1467 1467 1466 1466 1466 1466 1465 1465 1466 1466 1467 1468 1469 1470 1471 1473 1474 1474 1475
1484 1484 1483 1476 1476 1477 1476 1475 1475 1474 1474 1473 1472 1471 1471 1471 1469 1469 1469 1468 1468 1467 1468 1467 1467 1466 1466 1465 1465 1464 1464 1464 1464 1464 1464 1465 1466 1467 1468 1469 1470 1471 1472 1473